| time (UTC) | temp F | wind direction | speed knots | gust knots | rain 1hr in | rain 24hr in | rain mn in | humidity % | barometer mb |
| 20260506091856 | 50 | 263 | 7.0 | 7.0 | 0.00 | 0.00 | 0.00 | 60 | 1009.7 |
| 20260506090856 | 51 | 263 | 7.0 | 7.0 | 0.00 | 0.00 | 0.00 | 59 | 1009.6 |
| 20260506085856 | 51 | 263 | 7.0 | 7.0 | 0.00 | 0.00 | 0.00 | 58 | 1009.6 |
| 20260506084856 | 52 | 263 | 7.0 | 7.0 | 0.00 | 0.00 | 0.00 | 58 | 1009.6 |
| 20260506083856 | 52 | 263 | 7.0 | 7.0 | 0.00 | 0.00 | 0.00 | 57 | 1009.6 |
| 20260506082856 | 52 | 263 | 7.0 | 7.0 | 0.00 | 0.00 | 0.00 | 57 | 1009.5 |
| 20260506081857 | 52 | 263 | 7.0 | 7.0 | 0.00 | 0.00 | 0.00 | 57 | 1009.5 |
| 20260506080855 | 52 | 263 | 7.0 | 7.0 | 0.00 | 0.00 | 0.00 | 58 | 1009.5 |
| 20260506072855 | 54 | 263 | 7.0 | 7.0 | 0.00 | 0.00 | 0.00 | 53 | 1009.6 |
| 20260506071915 | 54 | 263 | 7.0 | 7.0 | 0.00 | 0.00 | 0.00 | 53 | 1009.5 |
| 20260506070855 | 54 | 263 | 7.0 | 7.0 | 0.00 | 0.00 | 0.00 | 53 | 1009.4 |
| 20260506061854 | 55 | 263 | 7.0 | 7.0 | 0.00 | 0.00 | 0.00 | 52 | 1009.0 |
| 20260506060855 | 56 | 263 | 7.0 | 7.0 | 0.00 | 0.00 | 0.00 | 51 | 1009.0 |
| 20260506050855 | 58 | 263 | 7.0 | 7.0 | 0.00 | 0.00 | 0.00 | 47 | 1008.5 |
| 20260506044854 | 60 | 263 | 7.0 | 7.0 | 0.00 | 0.00 | 0.00 | 45 | 1008.2 |
| 20260506043913 | 61 | 263 | 7.0 | 7.0 | 0.00 | 0.00 | 0.00 | 44 | 1008.0 |
| 20260506042853 | 62 | 263 | 7.0 | 7.0 | 0.00 | 0.00 | 0.00 | 42 | 1008.1 |
| 20260506041853 | 62 | 263 | 7.0 | 7.0 | 0.00 | 0.00 | 0.00 | 40 | 1008.0 |
| 20260506040853 | 63 | 263 | 7.0 | 7.0 | 0.00 | 0.00 | 0.00 | 38 | 1007.8 |
| 20260506035913 | 63 | 263 | 7.0 | 7.0 | 0.00 | 0.00 | 0.00 | 38 | 1007.7 |
| 20260506034853 | 64 | 263 | 7.0 | 7.0 | 0.00 | 0.00 | 0.00 | 37 | 1007.5 |
| 20260506033853 | 64 | 263 | 7.0 | 7.0 | 0.00 | 0.00 | 0.00 | 37 | 1007.3 |
| 20260506032913 | 64 | 263 | 7.0 | 7.0 | 0.00 | 0.00 | 0.00 | 37 | 1007.2 |
| 20260506031853 | 65 | 263 | 7.0 | 7.0 | 0.00 | 0.00 | 0.00 | 37 | 1007.1 |
| 20260506030854 | 65 | 263 | 7.0 | 7.0 | 0.00 | 0.00 | 0.00 | 37 | 1007.0 |
| 20260506025852 | 65 | 263 | 7.0 | 7.0 | 0.00 | 0.00 | 0.00 | 36 | 1006.8 |
| 20260506024852 | 65 | 263 | 7.0 | 7.0 | 0.00 | 0.00 | 0.00 | 36 | 1006.7 |
| 20260506023852 | 66 | 263 | 7.0 | 7.0 | 0.00 | 0.00 | 0.00 | 36 | 1006.6 |
| 20260506022853 | 66 | 263 | 7.0 | 7.0 | 0.00 | 0.00 | 0.00 | 36 | 1006.4 |
| 20260506021852 | 66 | 263 | 7.0 | 7.0 | 0.00 | 0.00 | 0.00 | 36 | 1006.3 |
| 20260506020852 | 66 | 263 | 7.0 | 7.0 | 0.00 | 0.00 | 0.00 | 36 | 1006.1 |
| 20260506015912 | 67 | 263 | 7.0 | 7.0 | 0.00 | 0.00 | 0.00 | 36 | 1006.0 |
| 20260506014853 | 67 | 263 | 7.0 | 7.0 | 0.00 | 0.00 | 0.00 | 35 | 1005.9 |
| 20260506013852 | 67 | 262 | 5.2 | 8.7 | 0.00 | 0.00 | 0.00 | 35 | 1005.8 |
| 20260506012852 | 68 | 273 | 1.7 | 7.0 | 0.00 | 0.00 | 0.00 | 35 | 1005.7 |
| 20260506011852 | 68 | 270 | 7.0 | 11.3 | 0.00 | 0.00 | 0.00 | 35 | 1005.6 |
| 20260506010852 | 68 | 276 | 4.3 | 7.0 | 0.00 | 0.00 | 0.00 | 35 | 1005.4 |
| 20260506005851 | 68 | 275 | 3.5 | 7.0 | 0.00 | 0.00 | 0.00 | 36 | 1005.4 |
| 20260506004851 | 68 | 261 | 2.6 | 8.7 | 0.00 | 0.00 | 0.00 | 35 | 1005.3 |
| 20260506003852 | 69 | 259 | 9.6 | 9.6 | 0.00 | 0.00 | 0.00 | 35 | 1005.2 |
| 20260506002851 | 69 | 279 | 8.7 | 8.7 | 0.00 | 0.00 | 0.00 | 35 | 1005.1 |
| 20260506001851 | 70 | 229 | 7.0 | 7.8 | 0.00 | 0.00 | 0.00 | 36 | 1005.0 |
| 20260506000911 | 70 | 282 | 8.7 | 8.7 | 0.00 | 0.00 | 0.00 | 35 | 1004.9 |
| 20260505235851 | 70 | 264 | 4.3 | 8.7 | 0.00 | 0.00 | 0.00 | 35 | 1004.8 |
| 20260505234851 | 71 | 247 | 7.8 | 9.6 | 0.00 | 0.00 | 0.00 | 35 | 1004.7 |
| 20260505233851 | 70 | 221 | 7.8 | 9.6 | 0.00 | 0.00 | 0.00 | 36 | 1004.8 |
| 20260505232851 | 70 | 199 | 7.0 | 8.7 | 0.00 | 0.00 | 0.00 | 37 | 1004.7 |
| 20260505231851 | 70 | 192 | 2.6 | 8.7 | 0.00 | 0.00 | 0.00 | 38 | 1004.8 |
| 20260505230850 | 70 | 186 | 2.6 | 4.3 | 0.00 | 0.00 | 0.00 | 38 | 1004.6 |
| 20260505225851 | 70 | 265 | 7.8 | 12.2 | 0.00 | 0.00 | 0.00 | 39 | 1004.7 |
| 20260505224910 | 71 | 257 | 4.3 | 8.7 | 0.00 | 0.00 | 0.00 | 39 | 1004.6 |
| 20260505223910 | 71 | 232 | 3.5 | 8.7 | 0.00 | 0.00 | 0.00 | 38 | 1004.7 |
| 20260505222911 | 72 | 267 | 2.6 | 9.6 | 0.00 | 0.00 | 0.00 | 40 | 1004.7 |
| 20260505221851 | 71 | 271 | 7.8 | 8.7 | 0.00 | 0.00 | 0.00 | 39 | 1004.8 |
| 20260505220850 | 72 | 242 | 13.9 | 14.8 | 0.00 | 0.00 | 0.00 | 32 | 1004.6 |
| 20260505215851 | 73 | 179 | 8.7 | 9.6 | 0.00 | 0.00 | 0.00 | 32 | 1004.9 |
| 20260505214850 | 74 | 214 | 10.4 | 14.8 | 0.00 | 0.00 | 0.00 | 30 | 1004.8 |
| 20260505213850 | 75 | 219 | 12.2 | 13.9 | 0.00 | 0.00 | 0.00 | 28 | 1005.1 |
| 20260505212851 | 75 | 183 | 4.3 | 14.8 | 0.00 | 0.00 | 0.00 | 28 | 1005.5 |
| 20260505211849 | 75 | 215 | 7.8 | 11.3 | 0.00 | 0.00 | 0.00 | 29 | 1005.5 |
| 20260505210849 | 75 | 268 | 7.0 | 12.2 | 0.00 | 0.00 | 0.00 | 32 | 1005.7 |
| 20260505205850 | 74 | 240 | 4.3 | 11.3 | 0.00 | 0.00 | 0.00 | 34 | 1005.8 |
| 20260505204850 | 74 | 187 | 4.3 | 8.7 | 0.00 | 0.00 | 0.00 | 35 | 1005.9 |
| 20260505203849 | 73 | 210 | 8.7 | 11.3 | 0.00 | 0.00 | 0.00 | 36 | 1006.1 |
| 20260505202909 | 73 | 221 | 8.7 | 13.9 | 0.00 | 0.00 | 0.00 | 38 | 1006.3 |
| 20260505201849 | 73 | 217 | 3.5 | 8.7 | 0.00 | 0.00 | 0.00 | 39 | 1006.1 |
| 20260505200849 | 73 | 167 | 11.3 | 16.5 | 0.00 | 0.00 | 0.00 | 41 | 1006.2 |
| 20260505195929 | 72 | 183 | 12.2 | 14.8 | 0.00 | 0.00 | 0.00 | 44 | 1006.3 |
| 20260505194849 | 72 | 159 | 7.8 | 8.7 | 0.00 | 0.00 | 0.00 | 45 | 1006.3 |
| 20260505193908 | 71 | 195 | 4.3 | 8.7 | 0.00 | 0.00 | 0.00 | 46 | 1006.5 |
| 20260505192848 | 70 | 190 | 12.2 | 13.0 | 0.00 | 0.00 | 0.00 | 49 | 1006.6 |
| 20260505191849 | 68 | 198 | 7.0 | 12.2 | 0.00 | 0.00 | 0.00 | 51 | 1006.6 |
| 20260505190848 | 69 | 175 | 9.6 | 13.0 | 0.00 | 0.00 | 0.00 | 50 | 1006.8 |
| 20260505185848 | 69 | 204 | 0.9 | 6.1 | 0.00 | 0.00 | 0.00 | 52 | 1006.9 |
| 20260505184848 | 68 | 203 | 5.2 | 10.4 | 0.00 | 0.00 | 0.00 | 52 | 1006.8 |
| 20260505183848 | 68 | 191 | 9.6 | 15.6 | 0.00 | 0.00 | 0.00 | 52 | 1006.9 |
| 20260505182848 | 68 | 196 | 4.3 | 7.0 | 0.00 | 0.00 | 0.00 | 55 | 1006.9 |
| 20260505181849 | 66 | 190 | 7.8 | 9.6 | 0.00 | 0.00 | 0.00 | 58 | 1006.8 |
| 20260505180848 | 66 | 170 | 2.6 | 7.8 | 0.00 | 0.00 | 0.00 | 60 | 1006.7 |
| 20260505175849 | 66 | 163 | 2.6 | 5.2 | 0.00 | 0.00 | 0.00 | 59 | 1006.7 |
| 20260505174847 | 67 | 200 | 1.7 | 5.2 | 0.00 | 0.00 | 0.00 | 58 | 1006.9 |
| 20260505173848 | 67 | 188 | 3.5 | 10.4 | 0.00 | 0.00 | 0.00 | 60 | 1006.8 |
| 20260505172847 | 66 | 200 | 4.3 | 7.8 | 0.00 | 0.00 | 0.00 | 64 | 1006.7 |
| 20260505171847 | 65 | 202 | 7.8 | 8.7 | 0.00 | 0.00 | 0.00 | 65 | 1006.8 |
| 20260505170847 | 65 | 175 | 5.2 | 8.7 | 0.00 | 0.00 | 0.00 | 66 | 1006.7 |
| 20260505165847 | 64 | 175 | 0.0 | 7.0 | 0.00 | 0.00 | 0.00 | 67 | 1006.7 |
| 20260505164907 | 64 | 175 | 0.9 | 0.9 | 0.00 | 0.00 | 0.00 | 68 | 1006.8 |
| 20260505163927 | 63 | 174 | 3.5 | 7.0 | 0.00 | 0.00 | 0.00 | 69 | 1006.9 |
| 20260505162848 | 63 | 173 | 2.6 | 7.8 | 0.00 | 0.00 | 0.00 | 70 | 1006.9 |
| 20260505161847 | 62 | 165 | 1.7 | 5.2 | 0.00 | 0.00 | 0.00 | 76 | 1006.8 |
| 20260505160846 | 62 | 162 | 0.9 | 0.9 | 0.00 | 0.00 | 0.00 | 75 | 1006.5 |
| 20260505152846 | 59 | 164 | 0.0 | 0.0 | 0.00 | 0.00 | 0.00 | 85 | 1006.5 |
| 20260505151846 | 59 | 164 | 0.0 | 0.0 | 0.00 | 0.00 | 0.00 | 86 | 1006.5 |
| 20260505150846 | 59 | 164 | 0.0 | 0.0 | 0.00 | 0.00 | 0.00 | 88 | 1006.3 |
| 20260505124845 | 56 | 233 | 8.7 | 8.7 | 0.00 | 0.00 | 0.00 | 87 | 1005.7 |
| 20260505123845 | 56 | 233 | 8.7 | 8.7 | 0.00 | 0.00 | 0.00 | 87 | 1005.6 |
| 20260505122846 | 56 | 233 | 8.7 | 8.7 | 0.00 | 0.00 | 0.00 | 87 | 1005.7 |
| 20260505121844 | 56 | 233 | 8.7 | 8.7 | 0.00 | 0.00 | 0.00 | 87 | 1005.5 |
| 20260505120844 | 56 | 233 | 8.7 | 8.7 | 0.00 | 0.00 | 0.00 | 87 | 1005.6 |
| 20260505115904 | 56 | 233 | 8.7 | 8.7 | 0.00 | 0.00 | 0.00 | 86 | 1005.5 |
| 20260505114844 | 56 | 233 | 8.7 | 8.7 | 0.00 | 0.00 | 0.00 | 86 | 1005.6 |
| 20260505113844 | 57 | 233 | 8.7 | 8.7 | 0.00 | 0.00 | 0.00 | 86 | 1005.7 |
| 20260505112905 | 57 | 233 | 8.7 | 8.7 | 0.00 | 0.00 | 0.00 | 86 | 1005.6 |
| 20260505111845 | 57 | 233 | 8.7 | 8.7 | 0.00 | 0.00 | 0.00 | 86 | 1005.8 |
| 20260505110924 | 57 | 233 | 8.7 | 8.7 | 0.00 | 0.00 | 0.00 | 86 | 1005.6 |
| 20260505101845 | 59 | 233 | 8.7 | 8.7 | 0.00 | 0.00 | 0.00 | 82 | 1006.5 |
| 20260505100843 | 59 | 233 | 8.7 | 8.7 | 0.00 | 0.00 | 0.00 | 81 | 1006.5 |
| 20260505095843 | 59 | 233 | 8.7 | 8.7 | 0.00 | 0.00 | 0.00 | 81 | 1006.6 |
| 20260505094843 | 59 | 233 | 8.7 | 8.7 | 0.00 | 0.00 | 0.00 | 79 | 1006.8 |
| 20260505093843 | 59 | 233 | 8.7 | 8.7 | 0.00 | 0.00 | 0.00 | 78 | 1006.7 |
| 20260505092843 | 59 | 233 | 8.7 | 8.7 | 0.00 | 0.00 | 0.00 | 76 | 1006.8 |